User: anonymous   Login
Location: Wawayanda State Park
(41.1833°N, 74.4333°W)
Time: 16:39:00
(UTC-04:00)
Language:

RESURS DK-1 - Orbit

View from above orbital plane
View from above orbital plane
View from above satellite
View from above satellite

Ground track
Ground track

The orbit data is extracted from the following two-line orbital elements,

1 29228U 06021A   17088.93171726 +.00000319 +00000-0 +31605-4 0  9994
2 29228 069.9347 299.7164 0001848 128.0888 232.0440 15.02117094596192
Epoch (UTC): 29 March 2017 22:21:40
Eccentricity: 0.0001848
inclination: 69.9347°
perigee height: 559 km
apogee height: 561 km
right ascension of ascending node: 299.7164°
argument of perigee: 128.0888°
revolutions per day: 15.02117094
mean anomaly at epoch: 232.0440°
orbit number at epoch: 59619

The dashed part of the orbit path shows where the satellite is in the earth's shadow,  

DLR